国际通讯卫星 2-F2星 (INTELSAT 2-F2)

导读 | 星芒AI

INTELSAT 2-F2 是一颗由美国制造的通信卫星,于1967年5月25日由“宇宙神-阿金纳D”运载火箭发射。它是国际通信卫星组织(INTELSAT)第二代卫星系统的一部分,主要用于跨大西洋的电视和电话通信。卫星运行在地球静止轨道,显著提升了当时国际通信的质量和可靠性。尽管其设计寿命有限,但INTELSAT 2-F2 在卫星通信发展史上具有重要意义,为后续更先进的通信卫星奠定了基础。

基本信息
目录编号:
2639
目录名称:
INTELSAT 2-F2
国际标识:
1967-001A
轨道中心:
EARTH
卫星名称:
国际通讯卫星 2-F2星
卫星全名:
国际通讯卫星 2-F2星 (INTELSAT 2-F2)
卫星状态:
在轨 (已飞行21523 天)
发射日期:
1967-01-11 UTC
国别 :
(ITSO)
星等 :
--
轨道信息
数据来源 国际轨道数据 AOE轨道数据
星历时间 2025-12-14T14:29:37+0800
1天前
查看轨道信息
2025-12-09T09:00:00+0800
6天前
查看轨道信息
半长轴 42176.535km 42176.619km
偏心率 0.0009456 0.0009252
轨道倾角 2.778° 2.765°
近地点辐角 192.116° 190.751°
升交点赤经 79.220° 79.277°
平近点角 253.433° 167.967°
近地点 35758.517km 35759.462km
远地点 35838.283km 35837.506km
周期 1436.700分钟 1436.704分钟
每日圈数 1.002297 1.002294
详细信息
卫星平台:
HS-303A
平衡模式:
自旋稳定
覆盖范围:
全球
运营商:
国际卫星通信公司
运营商所在国:
美国
制造商(研发单位):
休斯公司
制造商所在国:
美国
使用方式:
暂无
卫星简介
从1965年4月至1984年3月,国际通信卫星组织发射了5代、6种不同性能的卫星共计35颗,除6颗卫星因运载火箭和远地点发动机故障而发射失败外,其余29颗卫星均被送到了预定的静止轨道位置。1984年8月前后,国际通信卫星组织利用部署在大西洋、太平洋、印度洋上空的15颗国际通信卫星,为遍布世界各地170多个国家或地区提供电话、电传、电报、电视和数据传输等电信业务;该卫星已退役。
2D轨道图
3D轨道图
轨道高度分析图
轨道倾角分析图
轨道综合分析图
查看轨道综合分析图